WET,Max TemperatureF,Mean TemperatureF,Min TemperatureF,Max Dew PointF,MeanDew PointF,Min DewpointF,Max Humidity, Mean Humidity, Min Humidity, Max Sea Level PressureIn, Mean Sea Level PressureIn, Min Sea Level PressureIn, Max VisibilityMiles, Mean VisibilityMiles, Min VisibilityMiles, Max Wind SpeedMPH, Mean Wind SpeedMPH, Max Gust SpeedMPH,PrecipitationIn, CloudCover, Events, WindDirDegrees
2012-11-1,73,68,62,64,61,57,94,83,60,29.96,29.77,29.62,6,6,3,16,7,,0.24,6,Rain,297
2012-11-2,69,66,64,63,60,57,94,81,68,30.05,29.99,29.98,6,5,4,14,8,,0.02,7,Rain,357
2012-11-3,80,72,63,68,64,61,88,66,53,29.95,29.92,29.89,5,4,2,20,15,32,0.03,6,Rain,250
2012-11-4,82,76,71,66,63,60,78,60,45,29.92,29.87,29.83,6,5,3,26,18,41,0.00,3,,255
2012-11-5,66,62,57,57,56,55,94,82,65,30.08,30.05,30.01,6,4,2,12,6,,0.24,5,Rain,288
2012-11-6,64,60,57,63,59,56,100,94,90,30.08,30.03,29.98,4,3,1,23,5,,0.16,5,Rain,352
2012-11-7,64,63,62,63,62,61,94,92,86,30.16,30.10,30.06,4,2,1,29,20,41,0.24,5,Rain,105
2012-11-8,65,64,62,63,62,61,94,92,87,30.11,30.02,29.98,6,3,1,28,21,,0.08,7,Rain,96
2012-11-9,71,65,59,61,57,54,94,81,51,30.01,29.96,29.92,9,5,1,15,6,,0.16,3,Rain-Thunderstorm,237
2012-11-10,69,62,54,55,53,50,88,74,51,30.00,29.96,29.92,6,4,1,20,9,,0.02,4,Rain,252
2012-11-11,62,56,50,55,48,41,88,66,41,29.96,29.88,29.80,9,5,1,22,16,26,0.02,3,Rain,276
2012-11-12,64,56,48,52,45,41,82,68,46,30.13,30.02,29.92,6,5,1,10,8,,0.00,4,,219
2012-11-13,70,61,52,52,49,46,88,64,39,30.11,30.02,29.95,9,4,1,18,10,20,0.00,1,,245
2012-11-14,68,60,51,58,52,48,88,74,56,30.01,29.97,29.95,9,3,1,13,10,,0.00,5,,172
2012-11-15,69,63,57,61,57,55,94,84,68,30.05,30.01,29.98,6,4,1,13,5,,0.00,4,,93
2012-11-16,68,64,59,61,58,57,94,81,63,30.04,29.97,29.92,6,5,3,13,10,,0.00,4,,91
2012-11-17,67,62,57,61,56,52,94,81,60,29.91,29.78,29.71,6,4,1,15,4,,0.08,5,Rain,256
2012-11-18,67,63,59,59,56,54,88,82,68,29.95,29.78,29.68,5,4,1,15,9,,0.31,5,Rain,245
2012-11-19,71,64,57,57,56,54,88,79,55,30.10,30.03,29.98,6,5,1,14,7,,0.00,4,,255
2012-11-20,66,58,51,58,54,50,94,87,77,30.12,30.08,30.04,5,3,1,9,6,,0.00,5,,199
2012-11-21,69,62,55,57,54,52,94,81,64,30.13,30.08,30.06,6,3,1,8,5,,0.00,3,,192
2012-11-22,68,60,51,57,54,50,100,87,60,30.18,30.13,30.09,6,3,1,10,6,,0.00,1,,165
2012-11-23,67,58,50,57,55,50,100,86,62,30.18,30.14,30.12,6,3,1,14,5,,0.00,3,,72
2012-11-24,66,62,58,57,56,54,88,81,64,30.14,30.10,30.06,4,3,2,9,2,,0.00,4,,33
2012-11-25,68,63,58,59,57,55,94,80,63,30.11,30.06,30.04,4,3,1,8,3,,0.00,6,,72
2012-11-26,66,62,59,57,55,48,88,78,65,30.04,29.98,29.92,5,3,1,15,4,,0.00,6,,318
2012-11-27,62,56,51,50,45,41,77,65,48,29.96,29.91,29.89,6,3,1,21,12,32,0.04,4,,275
2012-11-28,60,55,50,47,43,37,82,64,35,30.00,29.92,29.86,9,3,1,23,14,,0.00,2,,277
2012-11-29,61,56,51,45,42,41,72,62,48,30.01,29.98,29.95,9,4,1,17,15,,0.00,2,,261
2012-11-30,54,51,48,46,43,39,93,71,49,29.98,29.82,29.71,6,4,3,18,12,,0.47,6,Rain,262